Overview Statistics Trail Chart Weather Telemetry Raw packets
 

This is the latest recevied weather packets stored in our database for station/object K5FEP. If no packets are shown the sender has not sent any weather packets the latest 10 day(s).

<< 51 52 53 54 55 56 57 >>
Time Temp. Humidity Pressure Rain* Wind** Luminosity Snow
1788292292 37.22° C 35% 1015.6 hPa 0 mm - 201 W/m² -
1788291988 36.67° C 37% 1015.7 hPa 0 mm - 740 W/m² -
1788291683 36.11° C 37% 1015.8 hPa 0 mm - 777 W/m² -
1788291379 36.11° C 37% 1015.9 hPa 0 mm - 631 W/m² -
1788291072 35.56° C 38% 1016 hPa 0 mm - 631 W/m² -
1788290768 35.56° C 38% 1016.1 hPa 0 mm - 202 W/m² -
1788290486 36.11° C 38% 1016.3 hPa 0 mm - 241 W/m² -
1788290159 35.56° C 39% 1016.2 hPa 0 mm - 473 W/m² -
1788289855 35.56° C 38% 1016.6 hPa 0 mm - 163 W/m² -
1788289550 36.67° C 38% 1016.3 hPa 0 mm - 222 W/m² -
1788289250 36.67° C 36% 1016.4 hPa 0 mm - 295 W/m² -
1788288948 37.22° C 36% 1016.3 hPa 0 mm - 350 W/m² -
1788288647 37.22° C 37% 1016.4 hPa 0 mm - 891 W/m² -
1788288343 36.11° C 38% 1016.4 hPa 0 mm - 860 W/m² -
1788288038 36.67° C 38% 1016.3 hPa 0 mm - 704 W/m² -
1788287738 36.11° C 38% 1016.3 hPa 0 mm - 873 W/m² -
1788287434 36.67° C 38% 1016.5 hPa 0 mm - 876 W/m² -
1788287130 36.11° C 39% 1016.4 hPa 0 mm - 880 W/m² -
1788286830 35° C 42% 1016.5 hPa 0 mm - 866 W/m² -
1788286548 35° C 42% 1016.5 hPa 0 mm - 209 W/m² -
1788286228 36.11° C 41% 1016.7 hPa 0 mm - 217 W/m² -
1788285927 36.67° C 39% 1016.6 hPa 0 mm - 834 W/m² -
1788285623 36.11° C 39% 1016.8 hPa 0 mm - 979 W/m² -
1788285316 35.56° C 38% 1016.7 hPa 0 mm - 957 W/m² -
1788285010 34.44° C 42% 1016.8 hPa 0 mm - 958 W/m² -

* Rain latest hour (hover to see other rain measurements)
** Current wind speed in m/s (hover to see current wind gust speed)